Flag for Iran Weather past 2 weeks in Mashhad, Iran

Now
70 °F

Clear.


Feels Like: 70 °F
Forecast: 70 / 100 °F
Wind: 5 mph from Southwest

Location: Mashhad Airport

Current Time: Jul 25, 2014 at 4:42:11 AM

Latest Report: Jul 25, 2014 at 4:00 AM


Visibility: 10 mi

Pressure: 29.92 "Hg

Humidity: 29%

Dew point: 36 °F

Location of MashhadLocation

Historic Weather in Mashhad — Graph

°F

Mashhad temperature yesterday

Maximum temperature yesterday: 93 °F (at 2:30 PM)
Minimum temperature yesterday: 72 °F (at 4:20 AM)
Average temperature yesterday: 82 °F

Past Weeks' High & Low Weather Summary

 TemperatureHumidityPressure
High106 °F (Jul 22, 2:00 PM)47% (Jul 12, 4:20 AM)30.01 "Hg (Jul 12, 4:20 AM)
Low63 °F (Jul 18, 5:30 AM)6% (Jul 19, 3:30 PM)29.68 "Hg (Jul 22, 3:00 PM)
Average84 °F19%29.88 "Hg
* Reported Jul 10 3:30 AM — Jul 25 3:30 AM, Mashhad, Weather by CustomWeather, © 2014

Note: Actual official high and low records may vary slightly from our data, if they occured in-between our weather recording intervals... More about our weather records

Advertising

Mashhad weather history for previous 24 hours

 ConditionsComfort  
Time TempWeatherWind HumidityBarometerVisibility
3:30 AM
Jul 25
70 °FClear.5 mph33%29.92 "Hg10 mi
3:00 AM70 °FClear.No wind33%29.92 "Hg10 mi
2:30 AM70 °FClear.5 mph33%29.92 "Hg10 mi
2:00 AM72 °FClear.5 mph29%29.92 "Hg10 mi
1:30 AM73 °FClear.5 mph27%29.95 "Hg10 mi
12:55 AM73 °FClear.5 mph27%29.95 "Hg10 mi
12:30 AM75 °FClear.5 mph24%29.95 "Hg10 mi
12:00 AM75 °FClear.5 mph24%29.95 "Hg10 mi
11:30 PM
Jul 24
77 °FClear.5 mph22%29.95 "Hg10 mi
10:55 PM77 °FClear.5 mph22%29.95 "Hg10 mi
10:30 PM77 °FClear.5 mph22%29.95 "Hg10 mi
9:55 PM77 °FClear.5 mph21%29.95 "Hg10 mi
9:20 PM77 °FClear.7 mph21%29.95 "Hg10 mi
9:00 PM79 °FSunny.7 mph20%29.95 "Hg10 mi
8:30 PM79 °FSunny.9 mph21%29.95 "Hg10 mi
8:00 PM81 °FSunny.14 mph20%29.95 "Hg10 mi
7:30 PM82 °FSunny.16 mph19%29.92 "Hg10 mi
7:00 PM84 °FSunny.14 mph18%29.92 "Hg10 mi
6:30 PM86 °FSunny.21 mph15%29.92 "Hg10 mi
6:00 PM88 °FSunny.16 mph15%29.92 "Hg10 mi
5:30 PM90 °FSunny.16 mph14%29.92 "Hg10 mi
5:00 PM90 °FSunny.16 mph13%29.92 "Hg10 mi
4:30 PM90 °FSunny.18 mph14%29.92 "Hg10 mi
4:00 PM91 °FSunny.16 mph12%29.92 "Hg10 mi
3:30 PM91 °FSunny.16 mph13%29.92 "Hg10 mi
3:00 PM93 °FSunny.16 mph12%29.92 "Hg10 mi
2:30 PM93 °FSunny.14 mph11%29.92 "Hg10 mi
2:00 PM91 °FSunny.14 mph12%29.95 "Hg10 mi
1:30 PM91 °FSunny.14 mph12%29.95 "Hg10 mi
1:00 PM91 °FSunny.14 mph13%29.95 "Hg10 mi
12:30 PM90 °FSunny.12 mph12%29.98 "Hg10 mi
12:00 PM88 °FSunny.14 mph13%29.98 "Hg10 mi
11:30 AM88 °FSunny.9 mph13%29.98 "Hg10 mi
11:00 AM84 °FSunny.14 mph16%30.01 "Hg10 mi
9:50 AM84 °FSunny.14 mph16%30.01 "Hg10 mi
9:30 AM82 °FSunny.5 mph17%30.01 "Hg10 mi
9:00 AM81 °FSunny.7 mph18%30.01 "Hg10 mi
8:30 AM82 °FSunny.9 mph17%30.01 "Hg10 mi
8:00 AM81 °FSunny.7 mph18%30.01 "Hg10 mi
7:30 AM79 °FSunny.14 mph21%30.01 "Hg10 mi
7:00 AM75 °FClear.7 mph27%30.01 "Hg10 mi
6:30 AM73 °FClear.5 mph25%30.01 "Hg10 mi
6:00 AM73 °FClear.5 mph25%29.98 "Hg10 mi
5:30 AM73 °FClear.9 mph25%29.98 "Hg10 mi
5:00 AM72 °FClear.7 mph27%29.98 "Hg10 mi
4:20 AM72 °FClear.5 mph29%29.98 "Hg10 mi
4:00 AM73 °FClear.5 mph23%29.98 "Hg10 mi
Weather by CustomWeather, © 2014

See weather overviewHow to use our weather pages